Location: Enikep?du
(16.5133°N, 80.7066°E)
Time: 04:24:03
(UTC+00:00)

Cosmos 1953 - Pass Details

Date: 20 January 2020
Orbit: 539 x 558 km, 82.5° (Epoch: 18 February)

Event Time Altitude Azimuth Distance (km) Brightness Sun altitude
Rises 00:14:00 0° 203° (SSW) 2,706 5.8 -13.4°
Reaches altitude 10° 00:16:20 10° 214° (SW) 1,818 4.8 -12.8°
Maximum altitude 00:19:53 30° 276° (W) 991 3.1 -12.0°
Drops below altitude 10° 00:23:28 10° 339° (NNW) 1,831 4.6 -11.2°
Sets 00:25:49 0° 350° (N) 2,728 5.6 -10.7°
